Home   Weather   Kempen   Past weeks

Flag for Germany Past Weather in Kempen, North Rhine-Westphalia, Germany — Yesterday and Last 2 Weeks

Now
45 °F

Passing clouds.


Feels Like: 41 °F
Forecast: 41 / 47 °F
Wind: 6 mph from South

Location: Monchengladbach Airport

Current Time: Dec 8, 2016 at 3:35:25 pm

Latest Report: Dec 8, 2016 at 2:50 pm


Visibility: N/A

Pressure: 30.36 "Hg

Humidity: 71%

Dew Point: 36 °F

Location of KempenLocation

Past Weather in Kempen — Graph

°F

Kempen Temperature Yesterday

Maximum temperature yesterday: 39 °F (at 1:20 pm)
Minimum temperature yesterday: 32 °F (at 7:50 am)
Average temperature yesterday: 37 °F

High & Low Weather Summary for the Past Weeks

 TemperatureHumidityPressure
High55 °F (Nov 23, 3:50 pm)100% (Nov 27, 9:20 am)30.60 "Hg (Nov 27, 9:20 am)
Low19 °F (Nov 29, 7:50 am)52% (Nov 30, 1:20 pm)30.04 "Hg (Nov 23, 2:20 pm)
Average38 °F82%30.30 "Hg
* Reported Nov 23 2:20 pm — Dec 8 2:20 pm, Kempen, Weather by CustomWeather, © 2016

Note: Actual official high and low records may vary slightly from our data, if they occured in-between our weather recording intervals... More about our weather records

Advertising

Kempen Weather History for the Previous 24 Hours

Scroll right to see more
 ConditionsComfort  
Time TempWeatherWind HumidityBarometerVisibility
2:20 pm
Thu, Dec 8
45 °FPassing clouds.7 mph71%30.36 "HgN/A
1:50 pm45 °FClear.3 mph71%30.36 "Hg10 mi
1:20 pm45 °FClear.7 mph71%30.36 "Hg10 mi
12:50 pm43 °FPassing clouds.8 mph71%30.39 "HgN/A
12:20 pm41 °FPassing clouds.6 mph76%30.39 "HgN/A
11:50 am41 °FPassing clouds.6 mph76%30.39 "HgN/A
11:20 am39 °FPassing clouds.6 mph81%30.42 "HgN/A
10:50 am39 °FPassing clouds.6 mph81%30.42 "HgN/A
10:20 am37 °FPassing clouds.6 mph81%30.42 "HgN/A
9:50 am37 °FPassing clouds.7 mph81%30.42 "HgN/A
9:20 am37 °FPassing clouds.6 mph81%30.42 "HgN/A
8:50 am36 °FPassing clouds.5 mph87%30.42 "HgN/A
8:20 am37 °FPassing clouds.5 mph81%30.42 "HgN/A
7:50 am36 °FPassing clouds.6 mph87%30.42 "HgN/A
8:20 pm
Wed, Dec 7
37 °FPassing clouds.6 mph87%30.45 "HgN/A
7:50 pm37 °FPassing clouds.7 mph87%30.45 "HgN/A
7:20 pm37 °FPassing clouds.5 mph87%30.45 "HgN/A
6:50 pm39 °FPassing clouds.6 mph81%30.45 "HgN/A
6:20 pm39 °FPassing clouds.7 mph81%30.42 "HgN/A
5:50 pm39 °FPassing clouds.7 mph81%30.42 "HgN/A
5:20 pm39 °FPassing clouds.8 mph81%30.42 "HgN/A
4:50 pm39 °FPassing clouds.6 mph81%30.42 "HgN/A
4:20 pm39 °FPassing clouds.6 mph81%30.42 "HgN/A
3:50 pm39 °FPassing clouds.6 mph81%30.42 "HgN/A
3:20 pm39 °FClear.3 mph81%30.42 "Hg10 mi
Weather by CustomWeather, © 2016

See weather overviewHow to use our weather pages